Miscellaneous Local Product
Issued by NWS Hastings, NE

Home | Current Version | Previous Version | Text Only | Print | Product List | Glossary On
Versions: 1 2 3 4 5 6 7 8 9 10 11 12 13 14 15 16 17 18 19 20 21 22 23 24 25 26 27 28 29 30 31 32 33 34 35 36 37 38 39 40 41 42 43 44 45 46 47 48 49 50
612
AXUS43 KGID 100202
MISGRI

GID CWA HOURLY WEATHER ROUNDUP
NATIONAL WEATHER SERVICE HASTINGS NE
800 PM CST FRI DEC 09 2016

NOTE: "FAIR" INDICATES FEW OR NO CLOUDS BELOW 12,000 FEET WITH NO
SIGNIFICANT WEATHER AND/OR OBSTRUCTIONS TO VISIBILITY.

...SOUTH CENTRAL NEBRASKA...

CITY           SKY/WX    TMP DP  RH WIND       PRES   REMARKS
GRAND ISLAND   CLOUDY    21  13  71 SE9       30.41F WCI  11
HASTINGS       CLOUDY    18  11  74 SE7       30.41F WCI   9
KEARNEY        CLOUDY    12   7  79 SE7       30.38F WCI   2
ORD            NOT AVBL
YORK           CLOUDY    23  14  68 CALM      30.45S
AURORA         CLOUDY    22  13  67 S5        30.42F WCI  16
LEXINGTON      CLOUDY    18  12  76 SE7       30.34S WCI   9
HOLDREGE       CLOUDY    14   9  81 E7        30.36R WCI   4
HEBRON         CLOUDY    24  15  68 SE6       30.45F WCI  17

...NEBRASKA PANHANDLE...

CITY           SKY/WX    TMP DP  RH WIND       PRES   REMARKS
CHADRON        CLOUDY     4  -2  76 NE7       30.31F WCI  -8
ALLIANCE       CLOUDY     8   2  76 NE8       30.23R WCI  -4
SCOTTSBLUFF    CLOUDY    15   5  64 SE7       30.20S WCI   5
SIDNEY         CLOUDY    19  11  70 E7        30.18F WCI  10

...WESTERN AND NORTH CENTRAL NEBRASKA...

CITY           SKY/WX    TMP DP  RH WIND       PRES   REMARKS
VALENTINE      CLOUDY     8   2  76 NE9       30.38R WCI  -5
AINSWORTH      CLOUDY    10   8  93 N8        30.36S WCI  -2
ONEILL         CLOUDY    12  10  92 NE6       30.41S WCI   3
BROKEN BOW     CLOUDY    13   9  84 CALM      30.33S
IMPERIAL       CLOUDY    19  14  81 E7        30.25R WCI  10
NORTH PLATTE   CLOUDY    14   9  80 E6        30.29F WCI   5
MCCOOK         CLOUDY    19  12  74 E8        30.30R WCI   9

...EASTERN NEBRASKA...

CITY           SKY/WX    TMP DP  RH WIND       PRES   REMARKS
NORFOLK        CLOUDY    17  10  74 SE7       30.44F WCI   8
SO SIOUX CITY  FLURRIES  19  10  68 E3        30.52S
TEKAMAH        CLOUDY    20  10  65 CALM      30.52S
COLUMBUS       CLOUDY    19  10  68 SE6       30.47F WCI  11
ALBION         CLOUDY    20  12  69 SE7       30.42F WCI  11
OMAHA EPPLEY   CLOUDY    22  11  62 SE10      30.53R WCI  11
OFFUTT AFB     CLOUDY    22  14  70 SE6       30.52S WCI  14
MILLARD        CLOUDY    24  14  65 SE7       30.51F WCI  16
LINCOLN        CLOUDY    23  14  68 SE6       30.50F WCI  16
NEBRASKA CITY  CLOUDY    23  10  59 CALM      30.51S
BEATRICE       CLOUDY    25  13  62 SE6       30.48S WCI  18
FALLS CITY     CLOUDY    25  14  63 SE5       30.52R WCI  19

...NORTHERN KANSAS...

CITY           SKY/WX    TMP DP  RH WIND       PRES   REMARKS
GOODLAND       CLOUDY    23  19  85 SE6       30.19F WCI  16
HILL CITY      CLEAR     20  12  71 SE6       30.32S WCI  12
NORTON         CLEAR     16   9  73 E6        30.31R WCI   7
PHILLIPSBURG   CLEAR     18  10  73 E5        30.38R WCI  11
SMITH CENTER   CLEAR     14  10  85 E7        30.39F WCI   4
BELOIT         CLEAR     21  12  68 E7        30.42F WCI  13
HAYS           CLEAR     18  12  77 SE10      30.36F WCI   6
RUSSELL        CLEAR     20  12  71 SE12      30.37F WCI   8
CONCORDIA      CLOUDY    25  16  68 SE6       30.44F WCI  18
SALINA         CLOUDY    28  15  58 SE7       30.47S WCI  21
TOPEKA         CLOUDY    27  15  61 SE6       30.51F WCI  20



USA.gov is the U.S. government's official web portal to all federal, state and local government web resources and services.